Location: Eimen
(51.8766°N, 9.7806°E)
Time: 03:41:17
(UTC+00:00)

Cosmos 2221 Rocket - Pass Details

Date: 09 August 2024
Orbit: 618 x 644 km, 82.5° (Epoch: 09 September)

Event Time Altitude Azimuth Distance (km) Brightness Sun altitude
Rises 02:28:28 0° 355° (N) 2,969 7.7 -11.7°
Reaches altitude 10° 02:30:55 10° 5° (N) 2,055 7.0 -11.4°
Maximum altitude 02:35:03 33° 70° (ENE) 1,095 5.6 -11.0°
Drops below altitude 10° 02:39:09 10° 134° (SE) 2,041 6.3 -10.5°
Sets 02:41:35 0° 145° (SE) 2,944 7.0 -10.3°
